Regional Weather Roundup
Issued by NWS

Home | Current Version | Previous Version | Text Only | Print | Product List | Glossary Off
Versions: 1 2 3 4 5 6 7 8 9 10 11 12 13 14 15 16 17 18 19 20 21 22 23 24 25 26 27 28 29 30 31 32 33 34 35 36 37 38 39 40 41 42 43 44 45 46 47 48 49 50

452
ASUS43 KMKX 211321
RWRWI

WISCONSIN REGIONAL WEATHER ROUNDUP
NATIONAL WEATHER SERVICE MILWAUKEE/SULLIVAN WI
800 AM CDT SAT OCT 21 2017

NOTE: "FAIR" INDICATES FEW OR NO CLOUDS BELOW 12,000 FEET WITH NO
SIGNIFICANT WEATHER AND/OR OBSTRUCTIONS TO VISIBILITY.

WIZ001-002-006>008-014>016-023>028-211400-
NORTHWEST WISCONSIN

CITY           SKY/WX    TMP DP  RH WIND       PRES   REMARKS
SUPERIOR ARPT  CLOUDY    63  52  66 S13G20    29.68R
ASHLAND        PTCLDY    63  48  58 S13G24    29.72S
HAYWARD        MOCLDY    61  48  62 S14G21    29.75S
SIREN          CLOUDY    64  51  64 S18G29    29.71R
CUMBERLAND     HVY RAIN  57  50  77 S10G23    29.77R
RICE LAKE      RAIN      60  50  69 S15G21    29.79R
CHETEK         CLOUDY    61  51  70 SE14G23   29.79R
LADYSMITH      MOCLDY    60  49  66 SE12G21   29.83R
EAU CLAIRE     LGT RAIN  60  52  74 S13       29.81R
MENOMONIE      LGT RAIN  60  56  87 S13G23    29.78R
NEW RICHMOND   HVY RAIN  58  55  89 S9        29.74R
OSCEOLA        RAIN      59  59 100 S14G25    29.74S
$$

WIZ003>005-009-010-017-018-211400-
NORTH CENTRAL WISCONSIN

CITY           SKY/WX    TMP DP  RH WIND       PRES   REMARKS
MANITOWISH WTR CLEAR     57  47  68 S10G16    29.83F
ARBOR VITAE    CLEAR     59  48  66 S10G16    29.85S
WOODRUFF       CLEAR     59  48  66 S10G16    29.85S
RHINELANDER    CLEAR     57  47  69 S10       29.88F
EAGLE RIVER    NOT AVBL
LAND O LAKES   CLEAR     58  45  62 S8        29.88S
PHILLIPS       CLEAR     58  48  69 S12G20    29.82S
TOMAHAWK       CLEAR     55  46  71 SE5       29.87S
MEDFORD        CLOUDY    56  48  74 SE9       29.85S
MERRILL        CLEAR     57  47  70 S5        29.88S
$$

WIZ029-030-035-036-043>047-211400-
CENTRAL WISCONSIN

CITY           SKY/WX    TMP DP  RH WIND       PRES   REMARKS
WAUSAU         CLEAR     57  48  72 SE9       29.88S
MOSINEE        MOCLDY    57  48  72 SE12G17   29.91R
MARSHFIELD     MOCLDY    58  49  72 S9        29.87R
STEVENS POINT  MOCLDY    57  48  70 S8        29.91R
WAUPACA        CLOUDY    59  50  73 SE6       29.93S
WAUTOMA        CLOUDY    59  50  72 S10       29.94R
WISC RAPIDS    MOCLDY    61  50  67 S8        29.90S
CAMP DOUGLAS   MOCLDY    63  52  67 S13       29.88S
$$

WIZ011>013-019>022-031-037>040-048>050-211400-
NORTHEAST WISCONSIN

CITY           SKY/WX    TMP DP  RH WIND       PRES   REMARKS
ANTIGO         PTCLDY    52  46  80 S7        29.92S
SHAWANO        CLEAR     61  49  64 S7        29.93S
OCONTO         PTCLDY    57  50  77 S7        29.95S
STURGEON BAY   CLOUDY    58  52  80 S14       29.97F
GREEN BAY      PTCLDY    59  50  72 S9        29.96S
MANITOWOC      CLOUDY    56  51  84 SE8       30.00R
APPLETON       MOCLDY    57  46  67 S12       29.93F
CLINTONVILLE   PTCLDY    57  48  72 S7        29.93S
OSHKOSH        MOCLDY    59  50  72 S16       29.94S
$$

WIZ032>034-041-042-053>061-211400-
SOUTHWEST WISCONSIN

CITY           SKY/WX    TMP DP  RH WIND       PRES   REMARKS
LA CROSSE      MOCLDY    65  53  65 S18       29.84R
SPARTA         MOCLDY    62  52  70 S8        29.87S
VIROQUA        CLOUDY    60  52  74 S13       29.89R
BOSCOBEL       CLOUDY    64  51  62 VRB6      29.90S
PRAIRIE DU CHI PTCLDY    63  50  63 SE8       29.87S
PLATTEVILLE    MOCLDY    61  52  71 S15G23    29.93F
$$

WIZ056-057-062-063-064-067-068-211400-
SOUTH CENTRAL WISCONSIN

CITY           SKY/WX    TMP DP  RH WIND       PRES   REMARKS
REEDSBURG      CLOUDY    61  51  68 S14G21    29.91S
BARABOO/DELLS  MOCLDY    59  49  68 S14       29.92S
LONE ROCK      CLOUDY    62  53  72 S5        29.92R
MINERAL POINT  CLOUDY    61  52  72 S14       29.93S
MADISON        MOCLDY    59  50  72 S12       29.95S
MIDDLETON      MOCLDY    60  50  69 S10G17    29.95F
WATERTOWN      MOCLDY    58  51  77 S9        29.98S
MONROE         MOCLDY    59  48  67 S14       29.96S
JANESVILLE     MOCLDY    63  50  63 S12G17    29.98S
$$

WIZ051-052-058>065-066-070>072-211400-
SOUTHEAST WISCONSIN

CITY           SKY/WX    TMP DP  RH WIND       PRES   REMARKS
MILWAUKEE      CLOUDY    62  50  64 S8        30.03R
WAUKESHA       CLEAR     57  46  67 S8        30.01S
MILWAUKEE/TIMM CLEAR     61  46  59 S6        30.02R
RACINE         CLOUDY    60  50  69 S8        30.04S
BURLINGTON     PTCLDY    59  50  71 S7        30.01S
KENOSHA        CLOUDY    62  48  60 S12       30.03S
FOND DU LAC    CLOUDY    62  47  57 S10       29.97R
SHEBOYGAN      MOCLDY    57  51  80 S9        29.99R
WEST BEND      CLOUDY    59  46  63 S7        30.00S
JUNEAU         CLOUDY    58  49  72 S8        29.99R
$$

LSZ147-162-211400-
LAKE SUPERIOR

STATION/POSITION TIME  TEMP    WIND        PRES    WAVE
                       AIR SEA DIR/SP/G            HT/PER
                 (UTC) (F)     (DEG/KT/KT) (MB)    (FT/S)
W MID LAKE BUOY  1250   57 52              1006.8R   2/ 4
DEVILS ISLAND    1300   63     160/ 11/ 15 1006.1R
SAXON HARBOR     1230   65     190/ 12/ 19 1006.1F
$$

LMZ867-665-643>646-211400-
LAKE MICHIGAN

STATION/POSITION TIME  TEMP    WIND        PRES    WAVE
                       AIR SEA DIR/SP/G            HT/PER
                 (UTC) (F)     (DEG/KT/KT) (MB)    (FT/S)
S GREEN BAY BUOY 1300   60 58  170/ 10/ 14 1014.2
N MID LAKE BUOY  1250   61 58  180/ 19/ 23 1015.6R   5/ 6
NORTHPORT PIER   1240   58     160/  9/ 15 1015.2R
KEWAUNEE LAKESHO 1254   52     180/  7/  8 1014.5F
SHEBOYGAN LAKESH 1300   56     190/ 19/ 20 1015.6R
PORT WASHINGTON  1240   55     180/  6/  8 1017.3R
ATWATER BUOY     1109   56 53  150/  8/ 10 1016.5S
MILWAUKEE LAKESH 1300   57     160/  9/  9   N/A
S MID LAKE BUOY  1250   62 61  160/ 17/ 21 1018.0R   3/ 5
KENOSHA   LAKESH 1300   57     170/ 13/ 14 1016.6
$$

TC  - TEMPERATURE IN CELSIUS
VSB - VISIBILITY IN STATUTE MILES
WCI - WIND CHILL INDEX
HX  - HEAT INDEX





USA.gov is the U.S. government's official web portal to all federal, state and local government web resources and services.